RH
24 25 24 21 21 24 25 24 23 22 21 20 19 18 18 18 17 17 16 16 16 16 16 16 15 15 15 14 14 14 14 14 13 13 13 12 12 12 12 12 11 11 11 11 10 10 10 10 9 9 9 9
23 25 23 21 21 24 25 24 23 22 21 19 18 18 17 17 16 16 15 15 15 15 15 15 15 14 14 14 14 14 14 14 13 13 13 13 13 13 12 12 12 12 12 11 11 11 10 10 10 10 10 10
23 24 23 20 20 23 24 23 22 21 20 18 17 16 16 15 15 15 14 14 14 14 14 14 14 14 14 14 14 14 14 14 14 14 14 13 13 13 12 12 12 12 12 12 12 12 11 11 11 11 11 11
23 24 23 21 19 21 22 22 21 20 18 17 16 15 15 15 14 14 14 14 14 14 14 14 14 14 14 14 14 14 14 14 14 14 14 13 14 13 13 13 13 13 13 13 13 13 12 12 12 12 12 12
22 23 23 21 18 19 21 21 20 18 17 16 15 15 14 14 14 14 14 14 13 14 14 14 14 14 14 13 14 14 14 14 14 14 14 14 14 14 14 14 14 14 14 14 14 14 13 14 13 13 13 13
22 23 23 20 17 17 19 20 19 17 16 16 15 14 14 14 14 14 13 13 13 13 14 14 13 13 13 13 13 13 13 13 13 14 14 15 15 15 15 15 15 15 15 15 15 15 15 15 15 15 15 15
21 22 22 20 17 15 17 18 18 17 16 15 14 14 14 13 13 13 13 14 13 13 13 13 13 13 13 13 13 13 14 14 14 14 15 15 16 15 16 16 16 16 16 16 16 16 16 16 16 16 16 16
21 22 21 20 17 14 14 16 16 16 15 15 14 14 13 13 13 13 14 14 13 13 13 13 12 12 12 13 13 13 14 14 15 15 15 16 16 16 16 17 17 17 17 17 17 17 17 17 17 17 17 17
22 22 22 20 17 14 13 13 15 15 15 15 14 14 13 13 13 13 13 14 13 13 13 12 12 12 12 13 13 14 14 15 15 15 16 16 16 16 16 17 17 18 18 18 18 18 18 18 18 18 18 18
22 22 22 20 17 14 12 12 13 14 14 14 14 13 13 13 13 12 12 12 13 12 12 12 11 12 12 12 13 14 14 14 15 15 15 16 16 16 16 17 17 18 18 18 18 18 18 18 19 19 19 19
22 22 21 20 17 14 13 12 12 12 13 13 13 12 12 12 11 11 11 11 11 11 11 11 11 11 11 12 12 13 14 14 14 15 15 15 16 16 16 16 17 17 18 18 19 19 19 19 19 20 20 20
22 21 21 20 18 16 14 13 12 12 12 12 12 12 11 11 11 11 11 11 11 10 10 11 11 11 12 12 12 13 13 14 14 14 15 15 16 15 16 16 17 17 18 18 18 19 20 20 20 20 21 21
21 21 20 20 19 17 15 14 13 13 12 12 12 12 12 12 12 12 12 12 11 11 11 12 12 12 12 12 12 13 13 14 14 14 14 14 15 15 15 16 16 17 17 17 17 18 19 20 21 21 21 21
20 20 21 21 20 18 17 16 15 14 14 14 14 14 14 14 14 14 14 13 13 13 12 12 13 12 12 12 12 13 13 13 13 14 14 13 13 13 14 14 14 16 16 17 16 16 18 18 20 20 21 22
21 21 21 22 22 20 19 18 17 17 17 17 17 17 17 16 16 16 16 15 14 14 14 13 13 13 13 13 12 12 13 13 13 13 13 13 12 12 12 13 13 14 15 17 17 16 17 17 19 20 21 22
22 21 21 22 22 22 22 21 21 20 20 20 20 20 19 18 17 17 16 15 15 15 15 14 14 14 13 13 13 13 13 13 12 12 12 12 12 12 12 12 13 14 15 16 18 17 17 18 19 20 21 23
23 22 22 22 22 22 23 23 22 22 22 21 21 20 19 18 17 16 16 16 16 16 15 15 14 14 14 14 14 13 13 13 13 12 12 12 12 12 11 13 14 14 15 16 17 18 18 19 20 20 22 23
24 23 22 23 23 23 23 22 22 22 22 21 20 20 19 18 18 17 17 17 17 17 16 16 15 15 14 15 14 14 14 14 13 13 13 12 12 12 12 13 14 15 15 16 17 18 19 20 21 22 23 24
24 25 24 24 24 23 23 23 23 23 22 21 21 20 19 19 18 18 18 18 18 17 17 16 16 15 15 16 15 15 15 15 14 14 14 13 13 13 14 15 15 15 16 17 18 19 20 21 22 23 24 25
25 25 26 26 26 25 25 25 25 24 24 23 22 21 20 19 19 19 19 19 18 18 18 17 16 16 16 17 16 16 16 16 16 16 15 15 16 16 17 17 17 17 17 18 19 20 21 22 22 24 25 26
26 26 26 27 27 27 27 27 27 27 26 25 25 24 23 21 20 20 20 20 20 19 19 18 18 17 17 18 18 18 18 18 18 18 18 19 20 20 20 20 20 20 20 21 20 21 21 22 23 24 26 27
26 26 26 27 27 27 28 28 28 29 28 28 27 28 27 25 24 22 22 21 21 21 20 20 20 19 19 20 20 20 20 20 21 22 22 23 23 24 24 24 24 24 25 24 23 22 23 24 25 25 27 29
27 27 27 27 27 28 28 28 29 29 29 29 30 30 30 29 29 27 26 25 24 24 23 23 22 22 22 23 23 23 24 24 25 26 27 28 28 28 29 30 30 31 30 29 27 27 26 26 27 28 29 31
28 27 28 27 27 28 28 28 29 29 29 30 31 31 31 31 32 31 30 29 28 27 26 26 25 25 25 25 26 26 28 29 30 31 32 32 33 33 35 36 37 37 36 35 33 32 31 30 30 31 32 33
29 28 28 28 28 28 28 29 29 29 30 30 31 32 32 33 33 32 32 32 32 31 30 29 29 28 27 27 28 29 31 34 35 36 37 38 38 39 40 40 40 40 39 38 37 36 35 34 34 34 35 35
29 29 29 28 28 28 28 29 29 29 30 30 31 32 33 33 33 33 33 34 34 34 33 33 32 31 30 29 30 32 34 37 39 40 42 42 43 43 42 42 42 42 42 41 40 40 39 38 38 38 39 39
30 30 29 28 28 28 28 28 28 29 29 30 31 32 33 33 33 33 34 35 35 35 36 35 34 33 32 32 33 35 38 40 42 44 45 45 44 44 44 43 44 45 46 46 46 47 46 44 43 42 43 44
29 30 29 29 29 29 29 29 29 29 30 31 32 32 33 33 33 33 34 35 36 36 37 36 35 34 34 35 36 38 39 41 43 45 46 46 46 46 47 47 49 50 51 52 52 54 53 52 52 49 48 49
29 29 29 29 30 30 30 30 31 30 31 34 33 33 35 34 33 34 35 35 36 37 37 37 36 36 36 37 39 40 41 42 44 46 47 48 48 49 50 51 52 54 55 56 57 59 60 60 60 57 56 57
30 30 31 31 30 31 31 31 32 33 34 35 35 35 36 35 34 34 36 36 37 37 37 38 37 38 39 40 42 42 43 44 46 47 49 50 51 52 53 54 54 56 59 61 62 63 65 66 66 65 65 66
32 32 32 32 31 31 32 31 33 35 36 36 35 36 37 38 37 36 36 37 38 38 38 39 40 41 42 43 44 45 45 46 48 49 51 52 53 54 56 57 58 59 62 64 66 68 70 71 73 74 73 73